Погода в Негневичах

Беларусь     53°39′22″N   26°04′36″E
темп.,
°C
ветер,
м/с
пор.,
м/с
влажн.,
%
обл.,
%
осадки,
мм/ч
давл.,
гПа
погр.,
м
11 апреля, вс
вс1100:00+8вюв228380 0.1 101915
03:00+7юв2285100 0.1 102018
06:00+7ююв2682100 0.0 1021143
09:00+9ю41172100 0.0 1022362
12:00+13ю5857100 0.0 1023667
15:00+16ю6748100 0.0 10231279
18:00+15ююв585285 0.0 10231198
21:00+10ююв41269100 0.0 1024289
12 апреля, пн
пн1200:00+9ююв51465100 0.0 1025366
03:00+8ююв5146796 0.0 1025364
06:00+6юв5137198 0.0 1024350
09:00+8юв51366100 0.0 1024482
12:00+12ююв71147100 0.0 10231096
15:00+15ююв6838100 0.0 10211342
18:00+13ю4849100 0.0 1020639
21:00+11юв385977 0.0 1020168
13 апреля, вт
вт1300:00+9ююв386387 0.0 1020171
03:00+9ююв3766100 0.0 1019148
06:00+9ююв246960 0.0 1019100
09:00+10зсз238060 0.0 1020327
12:00+9сз4482100 0.0 1021457
15:00+10ссз4577100 0.0 1021591
18:00+8ссз5780100 0.0 1021544
21:00+6с5107981 0.0 1021438
14 апреля, ср
ср1400:00+5с498092 0.0 1021417
03:00+4с51178100 0.0 1020485
06:00+4с51281100 0.9 1019610
09:00+3ссв61492100 4.8 1018635
12:00+2ссв61395100 3.7 1018544
15:00+2ссв61295100 6.4 1018496
18:00+2ссв61195100 0.7 1018459
21:00+2ссв51196100 0.9 1018393
15 апреля, чт
чт1500:00+3ссв51098100 0.5 1018363
03:00+3ссв51198100 0.6 1018399
06:00+3ссв41297100 0.0 1018436
09:00+4ссв51294100 0.0 1019546
12:00+5ссв61190100 0.0 1019608
15:00+4ссв61189100 0.0 1020666
18:00+3ссв61389100 0.9 1020603
21:00+3ссв61389100 1.1 1022654